SCP
0 0 0 0 0 0 0 0 0 0 0 0 0 0 0 0 0 0 0 0 0 0 0 0 0 0 0 0 0 0 0 0 0 0 0 0 0 0 0 0 0 0 0
0 0 0 0 0 0 0 0 0 0 0 0 0 0 0 0 0 0 0 0 0 0 0 0 0 0 0 0 0 0 0 0 0 0 0 0 0 0 0 0 0 0 0
0 0 0 0 0 0 0 0 0 0 0 0 0 0 0 0 0 0 0 0 0 0 0 0 0 0 0 0 0 0 0 0 0 0 0 0 0 0 0 0 0 0 0
0 0 0 0 0 0 0 0 0 0 0 0 0 0 0 0 0 0 0 0 0 0 0 0 0 0 0 0 0 0 0 0 0 0 0 0 0 0 0 0 0 0 0
0 0 0 0 0 0 0 0 0 0 0 0 0 0 0 0 0 0 0 0 0 0 0 0 0 0 0 0 0 0 0 0 0 0 0 0 0 0 0 0 0 0 0
0 0 0 0 0 0 0 0 0 0 0 0 0 0 0 0 0 0 0 0 0 0 0 0 0 0 0 0 0 0 0 0 0 0 0 0 0 0 0 0 0 0 0
0 0 0 0 0 0 0 0 0 0 0 0 0 0 0 0 0 0 0 0 0 0 0 0 0 0 0 0 0 0 0 0 0 0 0 0 0 0 0 0 0 0 0
0 0 0 0 0 0 0 0 0 0 0 0 0 0 0 0 0 0 0 0 0 0 0 0 0 0 0 0 0 0 0 0 0 0 0 0 0 0 0 0 0 0 0
0 0 0 0 0 0 0 0 0 0 0 0 0 0 0 0 0 0 0 0 0 0 0 0 0 0 0 0 0 0 0 0 0 0 0 0 0 0 0 0 0 0 0
0 0 0 0 0 0 0 0 0 0 0 0 0 0 0 0 0 0 0 0 0 0 0 0 0 0 0 0 0 0 0 0 0 0 0 0 0 0 0 0 0 0 0
0 0 0 0 0 0 0 0 0 0 0 0 0 0 0 0 0 0 0 0 0 0 0 0 0 0 0 0 0 0 0 0 0 0 0 0 0 0 0 0 0 0 0
0 0 0 0 0 0 0 0 0 0 0 0 0 0 0 0 0 0 0 0 0 0 0 0 0 0 0 0 0 0 0 0 0 0 0 0 0 0 0 0 0 0 0
0 0 0 0 0 0 0 0 0 0 0 0 0 0 0 0 0 0 0 0 0 0 0 0 0 0 0 0 0 0 0 0 0 0 0 0 0 0 0 0 0 0 0
0 0 0 0 0 0 0 0 0 0 0 0 0 0 0 0 0 0 0 0 0 0 0 0 0 0 0 0 0 0 0 0 0 0 0 0 0 0 0 0 0 0 0
0 0 0 0 0 0 0 0 0 0 0 0 0 0 0 0 0 0 0 0 0 0 0 0 0 0 0 0 0 0 0 0 0 0 0 0 0 0 0 0 0 0 0
0 0 0 0 0 0 0 0 0 0 0 0 0 0 0 0 0 0 0 0 0 0 0 0 0 0 0 0 0 0 0 0 0 0 0 0 0 0 0 0 0 0 0
0 0 0 0 0 0 0 0 0 0 0 0 0 0 0 0 0 0 0 0 0 0 0 0 0 0 0 0 0 0 0 0 0 0 0 0 0 0 0 0 0 0 0
0 0 0 0 0 0 0 0 0 0 0 0 0 0 0 0 0 0 0 0 0 0 0 0 0 0 0 0 0 0 0 0 0 0 0 0 0 0 0 0 0 0 0
0 0 0 0 0 0 0 0 0 0 0 0 0 0 0 0 0 0 0 0 0 0 0 0 0 0 0 0 0 0 0 0 0 0 0 0 0 0 0 0 0 0 0
0 0 0 0 0 0 -0 0 0 0 0 0 0 0 0 0 0 0 0 -0 0 0 0 0 0 0 0 0 0 0 0 0 0 0 0 0 0 0 0 0 0 0 0
0 0 0 0 0 -0 -0 0 0 0 0 0 0 0 0 0 0 0 -0 -0 0 0 0 0 0 0 0 0 0 0 0 0 0 0 0 0 0 0 0 0 0 0 0
0 0 0 0 0 0 0 0 0 -0 0 0 0 -0 0 0 0 0 -0 -0 0 0 0 0 0 0 0 0 0 0 0 0 0 0 0 0 0 0 0 0 0 0 0
0 0 0 0 0 0 0 0 0 0 -0 -0 -0 -0 -0 -0 -0 -0 0 0 0 0 0 0 0 0 0 0 0 0 0 0 0 0 0 0 0 0 0 0 0 0 0
0 0 0 0 0 0 0 0 0 0 0 -0 -0 -0 -0 -0 -0 0 0 0 0 0 0 0 0 0 0 0 0 0 0 0 0 0 0 0 0 0 0 0 0 0 0
0 0 0 0 0 0 0 0 0 0 0 0 0 0 -0 -0 -0 0 0 0 0 0 0 -0 0 0 0 0 0 0 0 0 0 0 0 0 0 0 0 0 0 0 0
0 0 0 0 0 0 0 0 0 0 0 0 0 0 0 0 -0 -0 0 0 0 0 0 0 0 0 0 0 0 0 0 0 0 0 0 0 0 0 0 -0 0 0 0
Wind_Speed
1 1 8 10 11 12 12 12 12 12 12 12 12 12 12 12 12 11 11 11 11 10 10 10 9 9 8 8 8 8 8 8 8 8 9 9 9 9 9 9 8 5 8
4 4 9 11 12 12 12 12 12 12 12 12 12 12 11 11 11 11 10 10 10 10 9 9 9 8 8 7 7 7 7 7 7 7 8 8 9 9 9 9 9 6 8
6 5 7 11 12 12 12 12 12 12 11 11 11 11 11 11 10 10 10 10 10 9 9 9 8 8 7 7 7 7 7 7 7 7 7 4 5 9 9 10 10 9 9
7 5 7 11 12 12 12 12 12 12 11 11 10 10 10 10 10 9 10 9 9 9 9 8 7 7 7 7 7 7 7 7 8 8 4 3 4 8 9 9 9 10 9
6 5 7 12 12 11 12 11 11 11 11 10 10 10 10 10 9 9 9 9 8 8 8 7 7 7 7 7 7 8 8 8 9 7 4 3 3 8 9 9 9 9 9
6 5 7 12 12 11 11 11 10 10 10 10 10 10 10 9 9 9 8 8 7 7 7 7 6 7 7 7 7 7 8 9 8 4 4 3 3 7 9 9 9 9 9
6 5 6 11 11 11 10 10 9 9 9 9 9 8 8 8 8 8 7 7 7 7 6 6 6 6 6 6 7 8 9 9 5 4 3 3 4 8 9 8 9 9 9
7 5 5 10 11 10 9 9 8 8 7 7 7 6 6 6 6 6 6 6 6 6 5 5 5 5 5 6 7 7 7 7 6 5 3 3 6 8 9 9 8 8 8
6 5 3 4 6 8 8 8 7 6 5 5 4 4 4 4 4 5 5 5 5 4 4 4 5 5 5 6 6 7 8 9 5 3 4 3 6 8 8 8 8 8 8
5 4 4 3 3 3 3 6 5 4 4 3 2 2 2 1 2 2 3 3 3 3 3 4 4 5 5 5 5 6 7 7 4 3 2 3 7 7 8 7 7 7 7
5 3 4 4 3 2 2 3 3 2 2 2 2 1 1 1 1 1 0 1 2 3 4 4 4 5 6 6 6 6 5 2 3 2 2 5 7 7 7 7 7 7 7
5 4 4 4 4 3 2 2 1 1 1 1 1 1 0 0 1 1 1 2 3 4 4 5 5 5 4 3 4 5 2 3 3 2 2 6 7 7 7 7 7 7 7
5 5 5 5 4 3 1 1 1 1 1 1 1 1 1 1 1 1 1 2 3 3 3 4 4 3 3 2 2 2 2 2 2 1 2 7 7 7 7 7 7 7 7
5 5 5 5 4 3 3 2 1 1 1 1 2 2 2 1 1 1 1 1 1 1 2 2 2 3 3 3 3 4 3 2 2 1 2 6 7 7 8 8 7 7 7
5 5 5 5 5 4 3 2 2 2 2 2 2 2 2 2 1 1 1 1 2 1 2 2 3 4 3 4 4 4 3 3 3 2 2 6 7 7 7 7 7 7 7
5 5 5 6 5 5 3 3 2 2 2 3 3 3 3 2 2 2 2 2 2 2 2 3 3 3 3 3 4 4 3 3 3 3 2 3 6 6 7 7 8 8 8
7 6 6 6 6 5 4 4 3 2 3 3 3 4 4 3 3 3 3 3 3 2 3 3 4 3 3 4 4 3 3 3 3 3 3 2 3 5 7 7 8 8 9
7 7 6 7 6 5 4 4 3 3 3 3 3 3 4 4 4 4 3 3 3 3 3 3 3 3 3 3 3 3 3 3 3 3 2 2 2 3 5 8 8 9 9
8 7 6 6 6 5 4 4 3 3 3 2 3 3 4 5 5 4 3 3 3 3 3 3 3 3 3 3 3 3 3 3 3 4 3 3 3 3 3 5 8 9 10
8 8 7 5 5 5 4 3 3 3 2 2 3 3 4 4 5 4 3 4 4 4 4 3 4 3 2 2 4 4 4 3 3 4 3 3 3 3 3 4 4 6 10
7 7 6 6 5 5 3 3 2 2 1 1 2 3 4 4 4 4 3 4 4 3 3 3 3 4 3 2 4 4 4 4 4 4 3 3 4 4 4 4 3 3 4
8 7 7 7 6 5 3 3 3 2 1 1 1 2 3 4 4 4 4 3 3 3 4 4 3 2 2 3 3 3 3 4 4 4 3 3 3 3 3 4 4 4 3
8 8 8 7 6 6 5 3 3 3 2 2 2 1 2 2 3 3 3 3 3 3 3 3 3 3 2 2 2 3 3 1 2 3 3 3 3 3 2 2 3 3 3
8 8 8 7 7 6 6 5 5 3 2 2 1 1 1 1 2 3 3 3 3 2 3 2 3 2 3 1 2 2 2 3 2 1 3 3 3 3 2 2 2 3 3
8 8 8 7 6 6 6 7 6 4 3 1 1 1 0 1 1 2 3 3 3 2 2 3 3 3 2 2 1 1 2 2 2 3 1 3 3 3 2 2 1 2 2
7 7 7 8 6 6 6 6 6 6 5 4 2 2 1 0 1 1 2 3 3 2 2 2 2 3 2 2 2 2 2 2 1 2 1 1 2 3 3 2 2 2 2
Wind_Direction
76 103 102 100 97 95 94 93 90 89 86 84 83 83 83 83 82 81 80 78 75 72 72 70 69 74 78 77 76 76 78 78 75 74 75 74 70 68 66 67 68 64 70
137 117 106 102 99 97 96 93 90 89 89 88 86 84 84 82 81 80 79 79 77 74 71 69 68 71 71 70 69 71 73 75 79 78 76 71 70 69 68 68 69 68 70
120 110 105 103 102 101 99 95 91 90 89 87 85 83 83 82 81 80 80 78 76 73 69 66 65 66 68 66 64 64 66 71 79 82 75 57 65 72 69 67 67 68 68
119 112 111 106 104 102 100 97 93 92 90 88 85 84 83 83 81 81 81 78 73 71 68 65 62 62 66 63 60 61 66 72 82 79 67 53 63 75 71 67 65 67 66
112 110 117 111 108 106 102 99 96 94 92 89 87 88 87 84 81 79 81 79 74 70 67 64 60 61 64 60 57 59 66 73 87 78 72 61 59 74 72 68 65 65 65
118 118 121 117 113 110 105 101 99 96 94 91 89 88 89 87 84 81 80 78 74 69 66 62 59 57 57 55 54 58 66 77 81 71 72 69 65 77 76 70 69 66 63
125 126 128 123 119 116 112 108 104 99 95 94 94 91 90 89 88 86 83 80 75 69 65 59 54 55 53 51 52 59 70 81 78 75 76 68 76 80 77 70 67 66 62
136 136 133 131 127 124 120 116 111 106 98 96 97 96 95 94 94 92 89 84 76 67 62 55 48 49 47 49 54 64 73 75 82 83 77 69 85 84 77 71 68 66 63
139 140 138 136 132 132 131 127 121 114 107 102 102 104 107 104 99 100 94 87 78 67 56 46 39 37 36 42 49 56 63 67 75 78 82 69 82 83 79 74 70 67 64
145 150 153 151 141 133 137 139 129 115 106 99 102 115 124 114 93 101 95 87 77 64 47 31 24 24 24 32 49 61 65 66 70 70 67 80 83 83 79 72 67 62 60
156 168 165 169 167 165 178 159 125 101 75 56 33 77 74 354 347 356 338 67 51 41 33 26 16 16 20 33 50 71 73 70 82 71 60 86 85 80 77 70 65 59 53
168 181 176 172 178 187 185 121 62 29 15 23 8 9 43 307 299 320 344 11 17 21 17 20 17 14 22 28 45 61 70 81 80 77 83 90 88 82 77 71 63 55 48
171 174 176 175 174 169 149 120 88 34 13 11 9 38 92 67 7 21 16 355 356 1 3 3 12 19 21 41 62 74 82 84 83 70 81 87 84 82 76 70 63 55 46
147 152 158 160 152 147 130 117 110 75 43 25 6 41 84 75 52 36 28 350 1 6 17 17 32 40 38 52 72 82 83 86 85 67 73 83 79 75 71 66 60 53 47
133 134 137 139 136 130 116 106 95 77 59 44 32 32 69 89 80 63 42 29 28 36 53 53 52 53 51 55 68 80 84 86 84 74 60 78 73 68 65 60 56 50 46
134 131 128 122 124 119 111 103 90 81 62 51 40 37 56 77 82 74 57 40 31 37 51 64 63 64 53 60 61 67 80 84 80 73 60 62 61 56 54 52 48 46 43
144 136 129 124 117 111 106 101 92 83 70 55 42 42 54 64 71 74 62 43 34 43 53 57 54 53 53 55 53 56 67 65 76 83 72 55 39 45 46 44 43 38 36
145 141 139 127 117 108 102 99 92 81 72 55 44 43 49 58 72 73 64 46 38 48 52 60 53 53 46 49 49 47 53 56 60 80 77 58 41 34 37 43 42 37 32
148 142 134 130 125 118 111 105 95 83 71 56 50 47 47 54 65 75 66 49 51 55 47 59 54 62 60 51 57 51 43 51 49 72 68 56 51 44 32 37 39 37 33
149 144 141 138 134 124 111 95 76 65 55 48 52 54 55 55 64 72 69 54 55 58 46 50 56 48 58 55 66 53 35 32 39 51 56 53 50 49 45 38 25 26 30
150 149 152 145 145 135 124 119 109 100 66 44 47 60 61 60 66 71 72 59 59 65 59 57 63 53 37 43 67 39 18 26 34 30 30 44 44 43 48 41 34 26 17
163 162 158 157 157 153 148 147 144 139 131 112 42 46 53 61 65 82 82 76 70 72 56 48 58 66 33 37 91 85 32 6 1 14 16 35 32 32 42 47 44 40 29
170 172 168 168 162 158 147 121 96 72 53 44 33 19 18 58 69 78 86 87 78 80 74 58 68 84 66 24 58 123 129 185 321 341 4 16 13 22 21 29 43 36 32
182 176 169 168 163 159 149 142 145 149 163 193 183 193 11 46 68 80 89 93 91 86 86 69 77 87 96 55 14 42 116 148 140 349 338 349 1 17 8 25 28 21 22
176 171 170 165 165 163 156 155 154 159 172 167 147 137 76 19 44 82 93 99 99 92 92 82 76 75 88 103 79 55 61 62 87 126 310 326 342 338 345 350 357 6 4
171 166 164 163 169 166 160 160 162 164 163 157 167 163 170 341 355 73 102 102 104 103 106 101 94 89 87 88 83 80 103 107 111 119 142 292 316 314 336 344 346 337 338